Location: Bartshausen
(51.8454°N, 9.8167°E)
Time: 10:48:52
(UTC+00:00)

Cosmos 44 Rocket - Pass Details

Date: 08 November 2025
Orbit: 637 x 741 km, 65.1° (Epoch: 09 December)

Event Time Altitude Azimuth Distance (km) Brightness Sun altitude
Exits shadow 04:05:05 55° 264° (W) 879 3.4 -22.1°
Maximum altitude 04:05:38 59° 235° (SW) 849 3.4 -22.0°
Drops below altitude 10° 04:10:41 10° 157° (SSE) 2,245 6.2 -21.3°
Sets 04:13:05 0° 153° (SSE) 3,166 7.1 -20.9°
